Miscellaneous Local Product
Issued by NWS North Platte, NE

Home | Current Version | Previous Version | Text Only | Print | Product List | Glossary On
Versions: 1 2 3 4 5 6 7 8 9 10 11 12 13 14 15 16 17 18 19 20 21 22 23 24 25 26 27 28 29 30 31 32 33 34 35 36 37 38 39 40 41 42 43 44 45 46 47 48 49 50
040
AXUS43 KLBF 282210
MISLBF


WESTERN AND NORTH CENTRAL NEBRASKA HOURLY WEATHER ROUNDUP
NATIONAL WEATHER SERVICE NORTH PLATTE NE
500 PM CDT SAT MAY 28 2016

NOTE: "FAIR" INDICATES FEW OR NO CLOUDS BELOW 12,000 FEET WITH NO
SIGNIFICANT WEATHER AND/OR OBSTRUCTIONS TO VISIBILITY.

NOTE: STATIONS NOT REPORTING VARIABLES SUCH AS SKY/WEATHER OR
PRESSURE ARE PROVIDED BY RAWS AND APRS NETWORKS AND ARE NOT UNDER
NATIONAL WEATHER SERVICE QUALITY CONTROL.

...OBSERVATIONS IN AND NEAR THE EASTERN PANHANDLE OF NEBRASKA...

CITY           SKY/WX    TMP DP  RH WIND       PRES   REMARKS
PINE RIDGE     CLOUDY    72  44  36 N9        29.91S
CHADRON        CLOUDY    69  47  45 S7        29.92R
ALLIANCE       CLOUDY    69  48  47 NE15      29.93S
SIDNEY         CLOUDY    69  47  45 SW15      29.98S
CRESCENT LAKE    N/A     74  42  31 S6G14       N/A
BIG SPRINGS      N/A     74  47  38 CALM        N/A
$$

...OBSERVATIONS IN NORTHERN NEBRASKA AND FAR SOUTHERN SOUTH DAKOTA...

CITY           SKY/WX    TMP DP  RH WIND       PRES   REMARKS
WINNER         FAIR      74  54  49 NW15      29.88R
VALENTINE      PTSUNNY   75  47  36 N9        29.90R
THEDFORD       SUNNY     75  49  39 NW9       29.92S
AINSWORTH      CLOUDY    72  49  44 N12       29.90S
O`NEILL        RAIN      62  57  82 N8        29.89R
ORD            MOSUNNY   75  53  46 NW13      29.87S
BROKEN BOW     MOSUNNY   73  52  47 NW7       29.90S
BUTTE            N/A     61  57  88 NW12G22     N/A
CHAMBERS         N/A     77  53  42 N3          N/A
EWING            N/A     61  59  92 NW7         N/A
$$

...OBSERVATIONS IN SOUTHWEST NEBRASKA AND FAR NORTHEAST COLORADO...

CITY           SKY/WX    TMP DP  RH WIND       PRES   REMARKS
WRAY           FAIR      77  43  29 W3        29.96S
HOLYOKE        FAIR      79  45  29 W5        29.97R
IMPERIAL       MOSUNNY   74  47  38 W8        29.95S
OGALLALA       SUNNY     74  46  37 CALM      29.94S
NORTH PLATTE   SUNNY     75  51  43 NW7       29.92S
MCCOOK         MOSUNNY   76  51  41 NW7       29.93S
LEXINGTON      MOSUNNY   73  53  48 W7        29.91S
PAXTON           N/A     73  53  50 W5          N/A
STAPLETON        N/A     79  54  41 CALM        N/A
GOTHENBURG       N/A     75  45  34 W5          N/A
CALLAWAY         N/A     73  54  51 NW9         N/A
$$

...OBSERVATIONS IN CENTRAL LINCOLN COUNTY AREA...

CITY           SKY/WX    TMP DP  RH WIND       PRES   REMARKS
N.P. AIRPORT   SUNNY     75  51  43 NW7       29.92S
N.P. DOWNTOWN    N/A     75  51  42 W3          N/A
N.P. SOUTHEAST   N/A     76  49  38 MISG        N/A
N.P. HILLCREST   N/A     74  51  44 W7          N/A
$$

...SOME OBSERVATIONS FROM AROUND THE REGION...

CITY           SKY/WX    TMP DP  RH WIND       PRES   REMARKS
DENVER         PTSUNNY   72  41  32 SE10      30.01S
LARAMIE        CLOUDY    58  29  33 NW23G36   30.10R
CHEYENNE       CLOUDY    70  34  26 W16G23    30.04R
SCOTTSBLUFF    MOSUNNY   74  40  29 SW9       29.92S
RAPID CITY     CLOUDY    63  52  67 W7        29.94S
BISMARCK       PTSUNNY   70  54  56 VRB5      29.85F
PIERRE         MOSUNNY   74  54  49 NE8       29.84S
SIOUX FALLS    RAIN      63  61  93 NE5       29.78S FOG
OMAHA          MOSUNNY   72  56  57 W17       29.81R
GRAND ISLAND   SUNNY     74  53  48 NW10G21   29.89R
KANSAS CITY    PTSUNNY   76  59  55 W9G21     29.91S
WICHITA        MOSUNNY   82  54  37 CALM      29.93S
OKLAHOMA CITY  MOSUNNY   82  63  52 S8        29.95S
DALLAS         MOSUNNY   87  73  62 SE12      29.91F HX  94
AMARILLO       MOSUNNY   81  40  23 S12       30.01F
DODGE CITY     SUNNY     77  47  34 CALM      29.97F
HAYS           SUNNY     77  52  41 NW8       29.95S
GOODLAND       SUNNY     76  45  33 VRB6      29.98F
$$




USA.gov is the U.S. government's official web portal to all federal, state and local government web resources and services.